Location: Milton Keynes
(52.0316°N, 0.7531°W)
Time: 10:10:36
(UTC+00:00)

N. Korean satellite - Pass Details

Date: 28 January 2019
Orbit: 456 x 510 km, 97.2° (Epoch: 20 February)

Event Time Altitude Azimuth Distance (km) Brightness Sun altitude
Rises 18:29:15 0° 208° (SSW) 2,604 10.8 -16.2°
Reaches altitude 10° 18:31:59 10° 231° (SW) 1,730 10.3 -16.6°
Maximum altitude 18:34:21 16° 271° (W) 1,398 10.0 -17.0°
Drops below altitude 10° 18:36:44 10° 310° (NW) 1,743 10.0 -17.3°
Sets 18:39:31 0° 333° (NNW) 2,634 10.6 -17.8°
